This demonstration page uses our WeatherBlox Daily Observations layout. Learn more.

Left ArrowRight Arrow

Hourly Observations for April 28, 2020

Temp ( °F °C ) Dew Point ( °F °C ) Humidity (%) Winds ( mph kmh ) Pressure ( in mb ) Visibility ( mi km ) Precip ( " mm )
12:15 am 00:15 Clear 65 18.3 50 10 59 59 S 15 24 29.71 1006 10 16.0934 0 0
12:35 am 00:35 Clear 65 18.1 51 10.4 61 61 S 15 24 29.7 1006 10 16.0934 0 0
12:55 am 00:55 Clear 64 18 51 10.5 62 62 S 15 24 29.7 1006 10 16.0934 0 0
1:15 am 01:15 Clear 64 18 51 10.7 63 63 S 14 22 29.7 1006 10 16.0934 0 0
1:35 am 01:35 Clear 64 17.5 51 10.8 65 65 S 14 22 29.71 1006 10 16.0934 0 0
1:55 am 01:55 Clear 64 17.7 52 11 65 65 SSW 14 22 29.71 1006 10 16.0934 0 0
2:15 am 02:15 Clear 64 18 52 11.1 64 64 SSW 14 22 29.7 1006 10 16.0934 0 0
2:35 am 02:35 Clear 64 18 52 11.1 64 64 SSW 12 19 29.69 1006 10 16.0934 0 0
2:55 am 02:55 Clear 64 17.8 52 11.2 65 65 SSW 10 17 29.7 1006 10 16.0934 0 0
3:15 am 03:15 Clear 64 17.7 52 11.1 65 65 W 14 22 29.75 1007 10 16.0934 0 0
3:35 am 03:35 Clear 63 17.3 51 10.7 65 65 WSW 6 9 29.73 1007 10 16.0934 0 0
3:55 am 03:55 Clear 63 17.4 50 10 62 62 WSW 9 15 29.72 1006 10 16.0934 0 0
4:15 am 04:15 Clear 64 17.6 49 9.3 58 58 WNW 7 11 29.73 1007 10 16.0934 0 0
4:35 am 04:35 Clear 62 16.5 48 9.1 62 62 W 5 7 29.74 1007 10 16.0934 0 0
4:55 am 04:55 Clear 61 16.1 48 9.1 63 63 WSW 3 6 29.75 1007 10 16.0934 0 0
5:15 am 05:15 Clear 63 17.1 47 8.3 56 56 W 5 7 29.75 1008 10 16.0934 0 0
5:35 am 05:35 Clear 62 16.7 47 8.1 57 57 W 6 9 29.76 1008 10 16.0934 0 0
5:55 am 05:55 Clear 62 16.5 46 8 57 57 WNW 7 11 29.76 1008 10 16.0934 0 0
6:15 am 06:15 Clear 62 16.7 46 7.5 55 55 NW 8 13 29.75 1007 10 16.0934 0 0
6:35 am 06:35 Partly Cloudy 63 17 46 7.6 54 54 NNW 7 11 29.74 1007 10 16.0934 0 0
6:55 am 06:55 Partly Cloudy 61 16.2 47 8.1 59 59 NNW 7 11 29.76 1008 10 16.0934 0 0
7:15 am 07:15 Partly Cloudy 61 16.2 47 8.5 61 61 N 14 22 29.78 1008 10 16.0934 0 0
7:35 am 07:35 Mostly Cloudy 61 16 47 8.3 60 60 NNW 17 28 29.8 1009 10 16.0934 0 0
7:55 am 07:55 Mostly Cloudy 60 15.6 47 8.5 63 63 N 15 24 29.79 1009 10 16.0934 0 0
8:15 am 08:15 Partly Cloudy 60 15.3 47 8.5 64 64 N 13 20 29.81 1009 10 16.0934 0 0
8:35 am 08:35 Sunny 60 15.5 46 8 61 61 NNW 14 22 29.81 1009 10 16.0934 0 0
8:55 am 08:55 Sunny 62 16.6 46 8 57 57 NNW 20 31 29.81 1009 10 16.0934 0 0
9:15 am 09:15 Sunny 63 17.1 45 7.4 53 53 N 21 33 29.79 1009 10 16.0934 0 0
9:35 am 09:35 Sunny 63 17.4 45 7.1 51 51 N 16 26 29.8 1009 10 16.0934 0 0
9:55 am 09:55 Sunny with Nearby Thunderstorms 64 18 45 7.1 49 49 N 17 28 29.8 1009 10 16.0934 0 0
10:15 am 10:15 Sunny 66 18.7 44 6.7 46 46 NNW 16 26 29.81 1009 10 16.0934 0 0
10:35 am 10:35 Sunny 67 19.4 44 6.4 43 43 NNW 18 30 29.81 1010 10 16.0934 0 0
10:55 am 10:55 Sunny with Nearby Thunderstorms 67 19.6 43 6.2 42 42 NNW 18 30 29.81 1010 10 16.0934 0 0
11:15 am 11:15 Sunny 69 20.5 41 5.2 37 37 NNW 21 33 29.8 1009 10 16.0934 0 0
11:35 am 11:35 Sunny 69 20.8 41 4.8 35 35 N 21 33 29.81 1010 10 16.0934 0 0
11:55 am 11:55 Sunny 71 21.4 40 4.4 33 33 N 21 33 29.81 1009 10 16.0934 0 0
12:15 pm 12:15 Sunny 71 21.8 40 4.2 32 32 NNW 20 31 29.8 1009 10 16.0934 0 0
12:35 pm 12:35 Sunny 72 22.1 40 4.4 32 32 N 20 31 29.81 1009 10 16.0934 0 0
12:55 pm 12:55 Sunny 72 22.2 40 4.3 31 31 NNW 21 33 29.81 1009 10 16.0934 0 0
1:15 pm 13:15 Sunny 72 22.4 40 4.7 32 32 N 18 30 29.81 1009 10 16.0934 0 0
1:35 pm 13:35 Sunny 73 22.6 40 4.3 30 30 N 15 24 29.81 1009 10 16.0934 0 0
1:55 pm 13:55 Sunny 73 23 40 4.2 29 29 N 20 31 29.8 1009 10 16.0934 0 0
2:15 pm 14:15 Partly Cloudy 73 22.8 40 4.2 30 30 N 21 33 29.8 1009 10 16.0934 0 0
2:35 pm 14:35 Mostly Cloudy 74 23.4 39 4.1 29 29 N 18 30 29.8 1009 10 16.0934 0 0
2:55 pm 14:55 Mostly Cloudy 73 22.5 39 3.7 29 29 N 22 35 29.81 1009 10 16.0934 0 0
3:15 pm 15:15 Mostly Cloudy with Haze 71 21.6 41 5.2 34 34 N 29 46 29.83 1010 5 8.0467 0 0
3:35 pm 15:35 Sunny 70 21 41 5 35 35 NNW 31 50 29.86 1011 7 11.26538 0 0
3:55 pm 15:55 Partly Cloudy 67 19.2 40 4.5 38 38 NNW 31 50 29.9 1013 7 11.26538 0 0
4:15 pm 16:15 Sunny 64 18 38 3.5 38 38 NNW 33 54 29.92 1013 10 16.0934 0 0
4:35 pm 16:35 Partly Cloudy 60 15.8 38 3.3 43 43 NNW 24 39 29.95 1014 10 16.0934 0 0
4:55 pm 16:55 Cloudy 59 15.2 40 4.2 48 48 NNW 22 35 29.96 1014 10 16.0934 0 0
5:15 pm 17:15 Mostly Cloudy 58 14.6 45 7 61 61 NNW 17 28 29.95 1014 10 16.0934 0 0
5:35 pm 17:35 Partly Cloudy 61 16.1 43 5.9 51 51 NNW 17 28 29.93 1014 10 16.0934 0 0
5:55 pm 17:55 Sunny 61 16.3 40 4.5 46 46 NNW 22 35 29.93 1013 10 16.0934 0 0
6:15 pm 18:15 Sunny 63 17.1 37 2.7 38 38 NNW 16 26 29.92 1013 10 16.0934 0 0
6:35 pm 18:35 Sunny 63 17.1 36 2.2 37 37 NNW 16 26 29.93 1014 10 16.0934 0 0
6:55 pm 18:55 Sunny 62 16.4 37 2.6 40 40 NNW 14 22 29.93 1013 10 16.0934 0 0
7:15 pm 19:15 Partly Cloudy 61 16.1 35 1.5 37 37 N 29 46 29.96 1015 10 16.0934 0 0
7:35 pm 19:35 Partly Cloudy 57 13.9 34 1.1 42 42 N 18 30 29.97 1015 10 16.0934 0 0
7:55 pm 19:55 Sunny 56 13.6 34 1.1 43 43 NNW 13 20 29.96 1015 10 16.0934 0 0
8:10 pm 20:10 Sunny 56 13.4 35 1.4 44 44 NW 10 17 29.96 1015 10 16.0934 0 0
8:35 pm 20:35 Clear 53 11.9 34 1 48 48 WNW 7 11 29.99 1015 10 16.0934 0 0
8:55 pm 20:55 Clear 53 11.4 34 1.2 50 50 NW 9 15 29.99 1016 10 16.0934 0 0
9:15 pm 21:15 Clear 52 11.2 34 1 50 50 NW 10 17 29.99 1016 10 16.0934 0 0
9:35 pm 21:35 Clear 52 11.3 35 1.4 51 51 NW 9 15 30 1016 10 16.0934 0 0
9:55 pm 21:55 Clear 53 11.9 35 1.5 49 49 N 14 22 30.03 1017 10 16.0934 0 0
10:15 pm 22:15 Clear 54 12.1 35 1.9 50 50 N 12 19 30.01 1016 10 16.0934 0 0
10:35 pm 22:35 Clear 53 11.7 36 2.2 52 52 NNW 12 19 30.01 1016 10 16.0934 0 0
10:55 pm 22:55 Clear 52 11 36 2.1 55 55 NNW 9 15 30.01 1016 10 16.0934 0 0
11:15 pm 23:15 Clear 50 10.1 36 2 57 57 NW 7 11 30.02 1017 10 16.0934 0 0
11:35 pm 23:35 Clear 48 9.1 35 1.8 61 61 WNW 8 13 30.03 1017 10 16.0934 0 0
11:55 pm 23:55 Clear 48 8.7 36 2 63 63 WNW 7 11 30.03 1017 10 16.0934 0 0

Powered by AerisWeather